Regional Weather Roundup
Issued by NWS

Home | Current Version | Previous Version | Graphics & Text | Print | Product List | Glossary On
Versions: 1 2 3 4 5 6 7 8 9 10 11 12 13 14 15 16 17 18 19 20 21 22 23 24 25 26 27 28 29 30 31 32 33 34 35 36 37 38 39 40 41 42 43 44 45 46 47 48 49 50
000
ASUS43 KDTX 272210
RWRMI
MICHIGAN HOURLY REGIONAL WEATHER ROUNDUP
NATIONAL WEATHER SERVICE DETROIT/PONTIAC MI
600 PM EDT WED JUL 27 2016

NOTE: "FAIR" INDICATES FEW OR NO CLOUDS BELOW 12,000 FEET WITH NO
SIGNIFICANT WEATHER AND/OR OBSTRUCTION TO VISIBILITY.

MIZ047>049-052>055-059>063-066>070-074>076-081>083-272300-
SOUTHEAST LOWER MICHIGAN

CITY           SKY/WX    TMP DP  RH WIND       PRES   REMARKS
ADRIAN         SUNNY     88  61  40 W7        29.95F
ALMA           HVY RAIN  70  67  91 NE9       29.99F
ANN ARBOR      MOSUNNY   89  61  38 SW9       29.94S
BAD AXE        CLOUDY    79  64  60 NE5       29.96R
CARO           RAIN      69  67  93 N9G17     29.96F
DETROIT CITY     N/A     89  62  40 VRB3      29.92F
DETROIT        MOSUNNY   91  60  35 SW10      29.93F HX  90
FLINT          LGT RAIN  80  65  59 N20G26    29.96R
GROSSE ILE     SUNNY     83  68  59 S12       29.92F
HILLSDALE      MOSUNNY   85  63  46 NW6       29.97S
HOWELL         SUNNY     88  60  39 NW8       29.95F

CITY           SKY/WX    TMP DP  RH WIND       PRES   REMARKS
JACKSON        SUNNY     85  64  49 NW5       29.96S
LAMBERTVILLE   SUNNY     88  60  38 NW6       29.95S
LANSING        PTSUNNY   76  61  59 N17G24    29.98R
LAPEER         PTSUNNY   83  62  48 NW22G30   29.95S
MASON          PTSUNNY   87  64  45 W7        29.95F
MONROE         SUNNY     86  65  48 SW6       29.93F
MT. CLEMENS    MOSUNNY   86  65  49 SE7       29.91F
PONTIAC        PTSUNNY   88  64  44 W10       29.93F
PORT HOPE        N/A     75  70  84 NE6       29.94R
PORT HURON     SUNNY     86  66  51 SW5       29.92F
TRI CITIES     CLOUDY    70  65  84 N6        29.98F
MIDLAND        LGT RAIN  70  68  92 SW5       29.97F
TROY           MOSUNNY   91  55  28 W8        29.94F
SAGINAW HB     CLOUDY    70  64  83 N6        29.96F
$$
MIZ043>046-050>051-056>058-064>065-071>073-077>080-272300-
SOUTHWEST LOWER MICHIGAN

CITY           SKY/WX    TMP DP  RH WIND       PRES   REMARKS
BATTLE CREEK   PTSUNNY   83  67  58 W8        29.96F
BENTON HARBOR  SUNNY     83  63  50 VRB5      29.95F
BIG RAPIDS     CLOUDY    71  70  96 E5        29.99S
COLDWATER      SUNNY     85  60  42 NW5       29.96F
FREMONT        FAIR      82  69  63 NW5       29.96S
HOLLAND        CLOUDY    83  67  58 W6        29.97S
GRAND RAPIDS   PTSUNNY   85  65  51 NW9       29.96S
IONIA          CLOUDY    71  62  72 NE12G20   29.98R
KALAMAZOO      MOSUNNY   87  67  51 NW8       29.95F HX  90
LUDINGTON      CLOUDY    81  67  61 CALM      29.94F
MARSHALL       SUNNY     86  61  43 W3        29.95F
MOUNT PLEASANT LGT RAIN  70  68  92 E3        29.96F
MUSKEGON       CLOUDY    82  68  62 W7        29.96F
SOUTH HAVEN    MOSUNNY   83  64  52 NW3       29.96F
$$
MIZ016>042-272300-
NORTHERN LOWER MICHIGAN

CITY           SKY/WX    TMP DP  RH WIND       PRES   REMARKS
ALPENA         MOSUNNY   76  68  76 SE9       29.95R
BEAVER ISLAND  CLOUDY    74  63  69 N3        29.96S
BELLAIRE       CLOUDY    80  65  61 NW5       29.95S
CADILLAC       CLOUDY    78  67  68 S7        29.98F
CHARLEVOIX     CLOUDY    75  66  73 NW3       29.98S
FRANKFORT      CLOUDY    78  62  58 NW7       29.96S
GAYLORD        CLOUDY    79  61  53 NW6       29.97F
GRAYLING       CLOUDY    84  64  50 NW12      29.97R
HARBOR SPRINGS CLOUDY    74  67  81 SW3       29.95S
HOUGHTON LAKE  PTSUNNY   76  66  71 SE3       29.98F
MANISTEE       MOSUNNY   82  65  56 W9        29.95S
OSCODA         LGT RAIN  69  66  91 SW16G23   29.99R
PELLSTON       MOSUNNY   77  66  68 W7        29.95S
ROGERS CITY    PTSUNNY   74  64  72 CALM      29.96S
TRAVERSE CITY  CLOUDY    80  63  55 N7        29.93S
$$
MIZ007>008-015-272300-
EASTERN UPPER MICHIGAN

CITY           SKY/WX    TMP DP  RH WIND       PRES   REMARKS
KINROSS        CLOUDY    74  56  53 N14       29.96F
MACKINAC ISLAN CLOUDY    74  60  61 N7        29.95S
NEWBERRY         N/A     73  59  60 N8        29.96S VSB 3/4
S. S. MARIE    CLOUDY    75  58  55 NW8       29.95F
MUNISING         N/A     68  64  87 NE13      29.99S
$$
MIZ004>006-011>014-085-272300-
CENTRAL UPPER MICHIGAN

CITY           SKY/WX    TMP DP  RH WIND       PRES   REMARKS
MANISTIQUE     MOSUNNY   73  70  88 CALM      29.95S
ESCANABA       CLOUDY    77  66  69 N6        29.96R
MENOMINEE      LGT RAIN N/A N/A N/A CALM      29.97
SAWYER-GWINN   PTSUNNY   64  59  82 N10       30.03R
$$
MIZ001>003-009>011-084-272300-
WESTERN UPPER MICHIGAN

CITY           SKY/WX    TMP DP  RH WIND       PRES   REMARKS
IRON MOUNTAIN  CLOUDY    72  64  76 N6        29.99S
HOUGHTON       CLOUDY    68  57  68 S3        30.04R
COPPER HARBOR    N/A     65  55  70 N5        30.02
IRONWOOD       CLOUDY    66  64  94 E5        30.00F
$$

ABBREVIATIONS USED IN REMARKS
   TC - TEMPERATURE IN CELSIUS
  WCI - WIND CHILL INDEX
   HX - HEAT INDEX
  VSB - VISIBILITY




USA.gov is the U.S. government's official web portal to all federal, state and local government web resources and services.